Champaign, IL

1:19 AM CDT on June 25, 2017 (GMT -0500)
Univ Of Illinois-Willard

Weather History for KCMI - January, 2014

Change the Weather History Date:

Friday, January 3, 2014

  Actual Average Record
Temperature  
Mean Temperature 5 °F 26 °F  
Max Temperature 20 °F 33 °F 57 °F (1998)
Min Temperature -10 °F 18 °F -10 °F (2014)
Degree Days  
Heating Degree Days 60 39  
Month to date heating degree days 153 117  
Since 1 July heating degree days 2529 2398  
Cooling Degree Days 0 0  
Month to date cooling degree days 0 0  
Year to date cooling degree days 0 0  
Moisture  
Dew Point 2 °F    
Average Humidity 79    
Maximum Humidity 91    
Minimum Humidity 67    
Precipitation  
Precipitation 0.00 in 0.09 in 0.89 in (2005)
Month to date precipitation 0.04 0.27  
Year to date precipitation 0.04 0.27  
Sea Level Pressure  
Sea Level Pressure 30.35 in    
Wind  
Wind Speed 12 mph (South)    
Max Wind Speed 26 mph    
Max Gust Speed 33 mph    
Visibility 10 miles    
Events      
T = Trace of Precipitation, MM = Missing Value Source: NWS Daily Summary

Daily Weather History Graph

Daily Weather History Graph

Search for Another Location

Airport or City:

Trip Planner

Search our weather history database for the weather conditions in past years. The results will help you decide how hot, cold, wet, or windy it might be!

Date:

Astronomy

Jan. 03, 2014 Rise Set
Actual Time 7:15 AM CST 4:40 PM CST
Civil Twilight 6:44 AM CST 5:10 PM CST
Nautical Twilight 6:11 AM CST 5:44 PM CST
Astronomical Twilight 5:38 AM CST 6:17 PM CST
Moon 8:41 AM CST (1/3) 7:49 PM CST (1/3)
Length of Visible Light 10h 25m
Length of Day
9h 24m
Waxing Crescent, 8% of the Moon is Illuminated
Jan 3
Waxing Crescent
Jan 7
First Quarter
Jan 15
Full
Jan 23
Last Quarter
Jan 30
New

Hourly Weather History & Observations

Time (CST) Temp. Windchill Dew Point Humidity Pressure Visibility Wind Dir Wind Speed Gust Speed Precip Events Conditions
12:53 AM -0.9 °F -12.7 °F -6.0 °F 79% 30.46 in 10.0 mi NW 5.8 mph - N/A   Clear
1:53 AM -2.0 °F -12.2 °F -6.0 °F 83% 30.48 in 10.0 mi WNW 4.6 mph - N/A   Clear
2:53 AM -2.9 °F -15.0 °F -7.1 °F 82% 30.49 in 10.0 mi WNW 5.8 mph - N/A   Clear
3:53 AM -5.1 °F -19.1 °F -9.9 °F 80% 30.49 in 10.0 mi WNW 6.9 mph - N/A   Clear
4:53 AM -6.0 °F - -11.9 °F 75% 30.50 in 10.0 mi Calm Calm - N/A   Clear
5:53 AM -8.0 °F -19.2 °F -11.0 °F 86% 30.51 in 10.0 mi WSW 4.6 mph - N/A   Clear
6:53 AM -8.0 °F - -11.9 °F 83% 30.52 in 10.0 mi Calm Calm - N/A   Clear
7:53 AM -8.0 °F - -9.9 °F 91% 30.52 in 10.0 mi Calm Calm - N/A   Clear
8:53 AM -0.0 °F -7.9 °F -2.0 °F 91% 30.52 in 10.0 mi South 3.5 mph - N/A   Clear
9:53 AM 6.1 °F -4.3 °F -0.0 °F 76% 30.51 in 10.0 mi SSE 5.8 mph - N/A   Clear
10:53 AM 9.0 °F -4.2 °F 1.9 °F 73% 30.48 in 10.0 mi SSE 9.2 mph - N/A   Clear
11:53 AM 12.0 °F -2.7 °F 5.0 °F 73% 30.43 in 10.0 mi South 12.7 mph - N/A   Clear
12:53 PM 15.1 °F 1.8 °F 8.1 °F 74% 30.40 in 10.0 mi SSE 11.5 mph - N/A   Clear
1:53 PM 18.0 °F 2.2 °F 8.1 °F 65% 30.34 in 10.0 mi SSE 18.4 mph - N/A   Mostly Cloudy
2:53 PM 18.0 °F 1.3 °F 9.0 °F 68% 30.32 in 10.0 mi South 20.7 mph - N/A   Overcast
3:53 PM 19.0 °F 3.6 °F 10.9 °F 71% 30.30 in 10.0 mi South 18.4 mph 26.5 mph N/A   Mostly Cloudy
4:53 PM 18.0 °F 3.1 °F 10.0 °F 71% 30.27 in 10.0 mi SSE 16.1 mph - N/A   Clear
5:53 PM 18.0 °F 3.1 °F 10.0 °F 71% 30.25 in 10.0 mi SSE 16.1 mph - N/A   Clear
6:53 PM 18.0 °F 1.3 °F 10.0 °F 71% 30.21 in 10.0 mi SSE 20.7 mph 27.6 mph N/A   Clear
7:53 PM 19.0 °F 2.4 °F 12.0 °F 74% 30.17 in 10.0 mi SSE 21.9 mph 28.8 mph N/A   Clear
8:53 PM 19.0 °F 2.0 °F 12.0 °F 74% 30.12 in 10.0 mi South 23.0 mph 31.1 mph N/A   Clear
9:53 PM 19.0 °F 2.4 °F 12.0 °F 74% 30.10 in 10.0 mi South 21.9 mph - N/A   Clear
10:53 PM 19.9 °F 2.8 °F 12.0 °F 71% 30.08 in 10.0 mi South 24.2 mph - N/A   Clear
11:53 PM 19.9 °F 3.5 °F 12.9 °F 74% 30.05 in 10.0 mi South 21.9 mph 31.1 mph N/A   Clear